Laconia, NH

7:31 PM EDT on April 27, 2017 (GMT -0400)
Laconia Municipal

Weather History for KLCI - April, 2014

Change the Weather History Date:

Friday, April 18, 2014

  Actual Average Record
Temperature  
Mean Temperature 34 °F -  
Max Temperature 48 °F 56 °F 84 °F (2002)
Min Temperature 21 °F 34 °F 19 °F (2003)
Degree Days  
Heating Degree Days 30    
Moisture  
Dew Point 23 °F    
Average Humidity 63    
Maximum Humidity 93    
Minimum Humidity 37    
Precipitation  
Precipitation 0.00 in - - ()
Sea Level Pressure  
Sea Level Pressure 30.45 in    
Wind  
Wind Speed 3 mph (SSE)    
Max Wind Speed 13 mph    
Max Gust Speed 20 mph    
Visibility 10 miles    
Events      
Averages and records for this station are not official NWS values.
T = Trace of Precipitation, MM = Missing Value Source: NWS Daily Summary

Daily Weather History Graph

Daily Weather History Graph

Search for Another Location

Airport or City:

Trip Planner

Search our weather history database for the weather conditions in past years. The results will help you decide how hot, cold, wet, or windy it might be!

Date:

Astronomy

Apr. 18, 2014 Rise Set
Actual Time 5:58 AM EDT 7:32 PM EDT
Civil Twilight 5:28 AM EDT 8:02 PM EDT
Nautical Twilight 4:51 AM EDT 8:39 PM EDT
Astronomical Twilight 4:12 AM EDT 9:18 PM EDT
Moon 11:19 PM EDT (4/18) 8:13 AM EDT (4/18)
Length of Visible Light 14h 34m
Length of Day
13h 34m
Waning Gibbous, 87% of the Moon is Illuminated
Apr 18
Waning Gibbous
Apr 22
Last Quarter
Apr 29
New
May 6
First Quarter
May 14
Full

Hourly Weather History & Observations

Time (EDT) Temp. Windchill Dew Point Humidity Pressure Visibility Wind Dir Wind Speed Gust Speed Precip Events Conditions
12:15 AM 28.4 °F - 19.4 °F 69% 30.66 in 10.0 mi Calm Calm - N/A   Clear
12:35 AM 26.6 °F - 19.4 °F 74% 30.65 in 10.0 mi Calm Calm - N/A   Clear
12:55 AM 26.6 °F - 19.4 °F 74% 30.65 in 10.0 mi Calm Calm - N/A   Clear
1:15 AM 26.6 °F - 19.4 °F 74% 30.64 in 10.0 mi Calm Calm - N/A   Clear
1:35 AM 26.6 °F - 19.4 °F 74% 30.64 in 10.0 mi Calm Calm - N/A   Clear
1:55 AM 24.8 °F - 21.2 °F 86% 30.63 in 10.0 mi Calm Calm - N/A   Clear
2:15 AM 24.8 °F - 19.4 °F 80% 30.63 in 10.0 mi Calm Calm - N/A   Clear
2:35 AM 24.8 °F - 19.4 °F 80% 30.64 in 10.0 mi Calm Calm - N/A   Clear
2:55 AM 24.8 °F - 19.4 °F 80% 30.63 in 10.0 mi Calm Calm - N/A   Clear
3:15 AM 23.0 °F - 19.4 °F 86% 30.63 in 10.0 mi Calm Calm - N/A   Clear
3:55 AM 24.8 °F - 19.4 °F 80% 30.62 in 10.0 mi Calm Calm - N/A   Clear
4:15 AM 24.8 °F - 19.4 °F 80% 30.63 in 10.0 mi Calm Calm - N/A   Clear
4:35 AM 23.0 °F - 19.4 °F 86% 30.61 in 10.0 mi Calm Calm - N/A   Clear
4:55 AM 23.0 °F - 19.4 °F 86% 30.61 in 10.0 mi Calm Calm - N/A   Clear
5:15 AM 23.0 °F - 19.4 °F 86% 30.60 in 10.0 mi Calm Calm - N/A   Clear
5:35 AM 21.2 °F - 19.4 °F 93% 30.58 in 10.0 mi Calm Calm - N/A   Clear
5:55 AM 21.2 °F 16.4 °F 19.4 °F 93% 30.58 in 10.0 mi ESE 3.5 mph - N/A   Clear
6:15 AM 23.0 °F - 21.2 °F 93% 30.57 in 10.0 mi Calm Calm - N/A   Clear
6:35 AM 23.0 °F - 19.4 °F 86% 30.56 in 10.0 mi Calm Calm - N/A   Clear
6:55 AM 24.8 °F - 21.2 °F 86% 30.55 in 10.0 mi Calm Calm - N/A   Clear
7:15 AM 26.6 °F - 23.0 °F 86% 30.55 in 10.0 mi Calm Calm - N/A   Clear
7:35 AM 28.4 °F - 24.8 °F 86% 30.55 in 10.0 mi Calm Calm - N/A   Clear
7:55 AM 30.2 °F - 24.8 °F 80% 30.56 in 10.0 mi Calm Calm - N/A   Clear
8:15 AM 32.0 °F - 24.8 °F 75% 30.56 in 10.0 mi Calm Calm - N/A   Clear
8:35 AM 33.8 °F 30.8 °F 21.2 °F 60% 30.55 in 10.0 mi North 3.5 mph - N/A   Clear
8:55 AM 33.8 °F 27.7 °F 21.2 °F 60% 30.55 in 10.0 mi NNE 6.9 mph - N/A   Clear
9:15 AM 35.6 °F 28.6 °F 21.2 °F 56% 30.55 in 10.0 mi ENE 9.2 mph - N/A   Clear
9:35 AM 37.4 °F 30.8 °F 23.0 °F 56% 30.56 in 10.0 mi ENE 9.2 mph - N/A   Clear
9:55 AM 37.4 °F 32.1 °F 23.0 °F 56% 30.56 in 10.0 mi North 6.9 mph - N/A   Clear
10:15 AM 37.4 °F 32.1 °F 23.0 °F 56% 30.56 in 10.0 mi NNE 6.9 mph - N/A   Clear
10:35 AM 39.2 °F 37.0 °F 24.8 °F 56% 30.55 in 10.0 mi NNE 3.5 mph - N/A   Clear
10:55 AM 39.2 °F 32.5 °F 24.8 °F 56% 30.53 in 10.0 mi NE 10.4 mph - N/A   Clear
11:15 AM 41.0 °F 35.8 °F 24.8 °F 53% 30.51 in 10.0 mi North 8.1 mph - N/A   Clear
11:35 AM 41.0 °F 37.1 °F 24.8 °F 53% 30.50 in 10.0 mi North 5.8 mph - N/A   Clear
11:55 AM 42.8 °F 38.6 °F 24.8 °F 49% 30.49 in 10.0 mi NE 6.9 mph - N/A   Clear
12:15 PM 44.6 °F 40.2 °F 24.8 °F 46% 30.48 in 10.0 mi NNE 8.1 mph - N/A   Clear
12:55 PM 44.6 °F 40.2 °F 24.8 °F 46% 30.44 in 10.0 mi NE 8.1 mph 16.1 mph N/A   Clear
1:15 PM 44.6 °F 39.2 °F 24.8 °F 46% 30.42 in 10.0 mi ENE 10.4 mph 17.3 mph N/A   Clear
1:35 PM 46.4 °F 40.7 °F 24.8 °F 43% 30.42 in 10.0 mi ENE 12.7 mph 19.6 mph N/A   Clear
1:55 PM 46.4 °F 41.5 °F 24.8 °F 43% 30.41 in 10.0 mi East 10.4 mph 19.6 mph N/A   Clear
2:15 PM 48.2 °F - 24.8 °F 40% 30.40 in 10.0 mi SE 8.1 mph - N/A   Clear
2:35 PM 46.4 °F 43.5 °F 21.2 °F 37% 30.39 in 10.0 mi SE 5.8 mph - N/A   Clear
2:55 PM 46.4 °F 41.9 °F 23.0 °F 40% 30.39 in 10.0 mi SE 9.2 mph - N/A   Clear
3:15 PM 46.4 °F 45.2 °F 24.8 °F 43% 30.38 in 10.0 mi SSE 3.5 mph - N/A   Clear
3:35 PM 46.4 °F 42.9 °F 24.8 °F 43% 30.37 in 10.0 mi South 6.9 mph - N/A   Clear
3:55 PM 46.4 °F 42.4 °F 23.0 °F 40% 30.36 in 10.0 mi SSW 8.1 mph - N/A   Clear
4:15 PM 46.4 °F 42.9 °F 23.0 °F 40% 30.35 in 10.0 mi South 6.9 mph - N/A   Clear
4:35 PM 46.4 °F 42.4 °F 23.0 °F 40% 30.34 in 10.0 mi South 8.1 mph - N/A   Clear
4:55 PM 46.4 °F 44.3 °F 24.8 °F 43% 30.33 in 10.0 mi SW 4.6 mph - N/A   Clear
5:15 PM 46.4 °F 44.3 °F 24.8 °F 43% 30.32 in 10.0 mi South 4.6 mph - N/A   Clear
5:35 PM 46.4 °F 44.3 °F 24.8 °F 43% 30.31 in 10.0 mi SSW 4.6 mph - N/A   Clear
5:55 PM 46.4 °F 43.5 °F 24.8 °F 43% 30.30 in 10.0 mi South 5.8 mph - N/A   Clear
6:15 PM 44.6 °F 40.2 °F 24.8 °F 46% 30.28 in 10.0 mi South 8.1 mph - N/A   Clear
6:35 PM 44.6 °F 40.2 °F 24.8 °F 46% 30.27 in 10.0 mi SSE 8.1 mph - N/A   Clear
6:55 PM 44.6 °F 39.7 °F 26.6 °F 49% 30.26 in 10.0 mi South 9.2 mph - N/A   Clear
7:15 PM 42.8 °F 38.0 °F 26.6 °F 53% 30.27 in 10.0 mi South 8.1 mph - N/A   Partly Cloudy
7:35 PM 42.8 °F 37.0 °F 26.6 °F 53% 30.26 in 10.0 mi SSE 10.4 mph - N/A   Partly Cloudy
7:55 PM 41.0 °F 35.2 °F 26.6 °F 57% 30.27 in 10.0 mi South 9.2 mph - N/A   Clear
8:15 PM 39.2 °F 35.0 °F 26.6 °F 61% 30.27 in 10.0 mi SSE 5.8 mph - N/A   Clear
8:35 PM 39.2 °F 35.9 °F 26.6 °F 61% 30.26 in 10.0 mi South 4.6 mph - N/A   Clear
8:55 PM 39.2 °F 37.0 °F 26.6 °F 61% 30.25 in 10.0 mi SW 3.5 mph - N/A   Clear
9:15 PM 37.4 °F 34.9 °F 26.6 °F 65% 30.26 in 10.0 mi SW 3.5 mph - N/A   Clear
9:35 PM 37.4 °F 32.1 °F 26.6 °F 65% 30.25 in 10.0 mi WSW 6.9 mph - N/A   Partly Cloudy
9:55 PM 37.4 °F 32.8 °F 26.6 °F 65% 30.25 in 10.0 mi SSW 5.8 mph - N/A   Partly Cloudy
10:15 PM 37.4 °F 31.4 °F 26.6 °F 65% 30.25 in 10.0 mi SW 8.1 mph - N/A   Clear
10:35 PM 37.4 °F 30.3 °F 26.6 °F 65% 30.24 in 10.0 mi SW 10.4 mph - N/A   Clear
10:55 PM 35.6 °F 28.6 °F 26.6 °F 70% 30.24 in 10.0 mi SW 9.2 mph - N/A   Clear
11:15 PM 35.6 °F 29.9 °F 26.6 °F 70% 30.24 in 10.0 mi WSW 6.9 mph - N/A   Clear
11:35 PM 35.6 °F 31.7 °F 26.6 °F 70% 30.24 in 10.0 mi WSW 4.6 mph - N/A   Clear
11:55 PM 33.8 °F 28.6 °F 26.6 °F 75% 30.23 in 10.0 mi SSW 5.8 mph - N/A   Clear